CW6734 Weather Reports


Display with metric or nautical units.
time (UTC)temp
F
wind
direction
speed
MPH
gust
MPH
rain 1hr
in
rain 24hr
in
rain mn
in
humidity
%
barometer
mb
20200703205530 90 60 0.0 0.0 0.00 0.00 0.00 45 1014.6
20200703204500 90 28 0.0 3.0 0.00 0.00 0.00 49 1014.7
20200703203437 90 68 0.0 2.0 0.00 0.00 0.00 54 1014.8
20200703202412 90 232 0.0 1.0 0.00 0.00 0.00 48 1014.9
20200703201356 89 80 0.0 3.0 0.00 0.00 0.00 50 1015.1
20200703200408 89 71 0.0 3.0 0.00 0.00 0.00 49 1015.2
20200703195411 89 321 0.0 3.0 0.00 0.00 0.00 58 1015.4
20200703194405 89 38 0.0 3.0 0.00 0.00 0.00 56 1015.5
20200703193417 89 270 0.0 3.0 0.00 0.00 0.00 52 1015.5
20200703192404 89 279 0.0 2.0 0.00 0.00 0.00 58 1015.4
20200703191418 88 110 0.0 2.0 0.00 0.00 0.00 53 1015.6
20200703190343 88 65 0.0 2.0 0.00 0.00 0.00 61 1015.8
20200703185334 88 68 0.0 4.0 0.00 0.00 0.00 52 1015.9
20200703184321 88 63 0.0 2.0 0.00 0.00 0.00 51 1016.0
20200703183246 87 93 0.0 1.0 0.00 0.00 0.00 50 1016.1
20200703182251 87 56 0.0 4.0 0.00 0.00 0.00 50 1016.4
20200703181216 87 63 1.0 4.0 0.00 0.00 0.00 58 1016.3
20200703180223 87 37 0.0 3.0 0.00 0.00 0.00 55 1016.3
20200703175244 87 71 1.0 5.0 0.00 0.00 0.00 50 1016.3
20200703174243 87 5 0.0 6.0 0.00 0.00 0.00 45 1016.3
20200703173246 87 12 1.0 6.0 0.00 0.00 0.00 51 1016.4
20200703172238 87 156 0.0 2.0 0.00 0.00 0.00 53 1016.4
20200703171232 87 333 0.0 0.0 0.00 0.00 0.00 54 1016.6
20200703170225 87 44 1.0 5.0 0.00 0.00 0.00 53 1016.6
20200703165156 87 30 0.0 5.0 0.00 0.00 0.00 56 1016.7
20200703164152 87 163 0.0 2.0 0.00 0.00 0.00 52 1016.7
20200703163206 86 346 0.0 4.0 0.00 0.00 0.00 51 1016.7
20200703162153 86 34 0.0 4.0 0.00 0.00 0.00 47 1016.6
20200703161200 86 274 0.0 3.0 0.00 0.00 0.00 61 1016.6
20200703160225 86 217 0.0 3.0 0.00 0.00 0.00 57 1016.5
20200703155152 86 227 0.0 1.0 0.00 0.00 0.00 56 1016.5
20200703154139 86 213 0.0 3.0 0.00 0.00 0.00 55 1016.6
20200703153123 86 244 0.0 2.0 0.00 0.00 0.00 56 1016.6
20200703152100 86 130 0.0 1.0 0.00 0.00 0.00 58 1016.6
20200703151040 85 184 0.0 2.0 0.00 0.00 0.00 63 1016.7
20200703150026 85 121 0.0 2.0 0.00 0.00 0.00 62 1016.6
20200703144952 85 26 0.0 2.0 0.00 0.00 0.00 59 1016.7
20200703144011 85 243 0.0 0.0 0.00 0.00 0.00 61 1016.6
20200703143014 84 189 0.0 2.0 0.00 0.00 0.00 59 1016.7
20200703141954 83 327 0.0 2.0 0.00 0.00 0.00 62 1016.8
20200703141015 82 317 0.0 2.0 0.00 0.00 0.00 62 1016.8
20200703140011 82 320 0.0 2.0 0.00 0.00 0.00 65 1016.9
20200703135018 81 112 0.0 1.0 0.00 0.00 0.00 70 1016.9
20200703134000 79 288 0.0 0.0 0.00 0.00 0.00 74 1017.0
20200703133029 78 217 0.0 0.0 0.00 0.00 0.00 75 1016.9
20200703132012 77 207 0.0 0.0 0.00 0.00 0.00 80 1016.9
20200703131018 76 226 0.0 0.0 0.00 0.00 0.00 82 1016.9
20200703125949 74 224 0.0 0.0 0.00 0.00 0.00 85 1016.8
20200703124930 72 165 0.0 0.0 0.00 0.00 0.00 92 1016.9
20200703123909 70 165 0.0 0.0 0.00 0.00 0.00 93 1016.8
20200703122931 68 191 0.0 0.0 0.00 0.00 0.00 95 1016.6
20200703121919 67 190 0.0 0.0 0.00 0.00 0.00 95 1016.7
20200703120943 66 190 0.0 0.0 0.00 0.00 0.00 95 1016.7
20200703115936 66 190 0.0 0.0 0.00 0.00 0.00 95 1016.7
20200703114954 65 190 0.0 0.0 0.00 0.00 0.00 95 1016.7
20200703113942 65 190 0.0 0.0 0.00 0.00 0.00 95 1016.6
20200703112947 64 190 0.0 0.0 0.00 0.00 0.00 95 1016.7
20200703111931 64 190 0.0 0.0 0.00 0.00 0.00 95 1016.5
20200703110944 64 190 0.0 0.0 0.00 0.00 0.00 95 1016.6
20200703105934 64 190 0.0 0.0 0.00 0.00 0.00 95 1016.4
20200703104901 64 306 0.0 0.0 0.00 0.00 0.00 94 1016.3
20200703103831 64 291 0.0 0.0 0.00 0.00 0.00 94 1016.3
20200703102807 64 51 0.0 0.0 0.00 0.00 0.00 95 1016.5
20200703101801 64 51 0.0 0.0 0.00 0.00 0.00 94 1016.5
20200703100743 64 51 0.0 0.0 0.00 0.00 0.00 94 1016.3
20200703095310 64 51 0.0 0.0 0.00 0.00 0.00 94 1016.4
20200703094238 64 51 0.0 0.0 0.00 0.00 0.00 94 1016.2
20200703093252 64 51 0.0 0.0 0.00 0.00 0.00 94 1016.0
20200703092256 64 51 0.0 0.0 0.00 0.00 0.00 93 1015.9
20200703091245 64 51 0.0 0.0 0.00 0.00 0.00 93 1015.8
20200703090237 64 51 0.0 0.0 0.00 0.00 0.00 92 1015.7
20200703085226 65 51 0.0 0.0 0.00 0.00 0.00 92 1015.9
20200703084150 65 51 0.0 0.0 0.00 0.00 0.00 91 1015.9
20200703083140 65 51 0.0 0.0 0.00 0.00 0.00 92 1015.9
20200703082136 65 51 0.0 0.0 0.00 0.00 0.00 91 1015.9
20200703081137 65 51 0.0 0.0 0.00 0.00 0.00 91 1015.8
20200703080111 65 51 0.0 0.0 0.00 0.00 0.00 91 1015.9
20200703075122 65 51 0.0 0.0 0.00 0.00 0.00 91 1016.0
20200703074146 66 51 0.0 0.0 0.00 0.00 0.00 90 1015.9
20200703073122 66 51 0.0 0.0 0.00 0.00 0.00 90 1015.9
20200703072105 66 51 0.0 0.0 0.00 0.00 0.00 88 1015.8
20200703071115 67 51 0.0 0.0 0.00 0.00 0.00 88 1015.7
20200703070127 67 51 0.0 0.0 0.00 0.00 0.00 88 1015.7
20200703065105 67 51 0.0 0.0 0.00 0.00 0.00 89 1015.6
20200703064112 67 51 0.0 0.0 0.00 0.00 0.00 90 1015.8
20200703063040 68 51 0.0 0.0 0.00 0.00 0.00 88 1016.0
20200703062012 68 51 0.0 0.0 0.00 0.00 0.00 88 1015.9
20200703060945 68 51 0.0 0.0 0.00 0.00 0.00 88 1015.9
20200703060000 68 51 0.0 0.0 0.00 0.00 0.00 86 1015.9
20200703055010 69 51 0.0 0.0 0.00 0.00 0.00 85 1016.0
20200703053957 69 51 0.0 0.0 0.00 0.00 0.00 84 1016.0
20200703052950 69 51 0.0 0.0 0.00 0.00 0.00 82 1016.0
20200703051945 70 51 0.0 0.0 0.00 0.00 0.00 80 1015.9
20200703050950 71 51 0.0 0.0 0.00 0.00 0.00 78 1015.9
20200703050008 71 51 0.0 0.0 0.00 0.00 0.00 77 1015.9
20200703045007 72 51 0.0 0.0 0.00 0.00 0.00 76 1016.0
20200703044011 72 51 0.0 0.0 0.00 0.00 0.00 77 1016.0
20200703043000 72 51 0.0 0.0 0.00 0.00 0.00 76 1015.9
20200703042024 72 51 0.0 0.0 0.00 0.00 0.00 75 1015.9
20200703041012 72 51 0.0 0.0 0.00 0.00 0.00 74 1015.9
20200703040037 73 51 0.0 0.0 0.00 0.00 0.00 74 1016.0
20200703035042 73 51 0.0 0.0 0.00 0.00 0.00 73 1015.9
20200703034014 73 51 0.0 0.0 0.00 0.00 0.00 73 1015.9
20200703032941 74 51 0.0 0.0 0.00 0.00 0.00 73 1015.9
20200703031926 74 54 0.0 0.0 0.00 0.00 0.00 74 1015.8
20200703030903 74 119 0.0 0.0 0.00 0.00 0.00 74 1015.9
20200703025924 74 107 0.0 0.0 0.00 0.00 0.00 77 1015.7
20200703024935 74 25 0.0 0.0 0.00 0.00 0.00 77 1015.7
20200703024005 74 25 0.0 0.0 0.00 0.00 0.00 80 1015.6
20200703022949 74 268 0.0 0.0 0.00 0.00 0.00 80 1015.5
20200703022000 75 268 0.0 0.0 0.00 0.00 0.00 76 1015.4
20200703020939 75 268 0.0 0.0 0.00 0.00 0.00 75 1015.3
20200703015912 75 268 0.0 0.0 0.00 0.00 0.00 76 1015.2
20200703014859 75 268 0.0 0.0 0.00 0.00 0.00 75 1015.2
20200703013914 76 268 0.0 0.0 0.00 0.00 0.00 74 1015.0
20200703012903 76 268 0.0 0.0 0.00 0.00 0.00 74 1015.0
20200703011902 77 268 0.0 0.0 0.00 0.00 0.00 74 1015.0
20200703010846 78 268 0.0 0.0 0.00 0.00 0.00 75 1014.8
20200703005811 79 268 0.0 0.0 0.00 0.00 0.00 75 1014.9
20200703004811 79 327 0.0 0.0 0.00 0.00 0.00 75 1014.9
20200703003817 80 281 0.0 0.0 0.00 0.00 0.00 73 1014.9
20200703002756 81 241 0.0 0.0 0.00 0.00 0.00 71 1015.0
20200703001750 82 234 0.0 0.0 0.00 0.00 0.00 69 1015.0
20200703000808 83 241 0.0 0.0 0.00 0.00 0.00 68 1015.0
20200702235733 83 286 0.0 0.0 0.00 0.00 0.00 65 1015.0
20200702234727 84 291 0.0 0.0 0.00 0.00 0.00 64 1015.0
20200702233705 84 279 0.0 0.0 0.00 0.00 0.00 65 1015.0
20200702232716 84 294 0.0 0.0 0.00 0.00 0.00 62 1015.0
20200702231705 84 338 0.0 0.0 0.00 0.00 0.00 62 1015.1
20200702230634 84 320 0.0 0.0 0.00 0.00 0.00 62 1015.0
20200702225619 84 19 0.0 0.0 0.00 0.00 0.00 61 1015.0
20200702224634 85 30 0.0 3.0 0.00 0.00 0.00 58 1014.9
20200702223624 86 56 0.0 0.0 0.00 0.00 0.00 56 1015.0
20200702222551 87 79 0.0 0.0 0.00 0.00 0.00 55 1015.0
20200702221526 87 346 0.0 1.0 0.00 0.00 0.00 55 1015.2
20200702220542 87 344 0.0 3.0 0.00 0.00 0.00 59 1015.1
20200702215538 87 52 0.0 2.0 0.00 0.00 0.00 56 1015.1
20200702214511 86 274 0.0 2.0 0.00 0.00 0.00 57 1015.0
20200702213530 86 207 0.0 1.0 0.00 0.00 0.00 58 1015.0
20200702212527 88 102 0.0 1.0 0.00 0.00 0.00 62 1015.1
20200702211455 88 259 0.0 3.0 0.00 0.00 0.00 52 1015.3
20200702210428 88 65 0.0 3.0 0.00 0.00 0.00 55 1015.2